Volver al catálogo

IRIDIUM 33 DEB

ActivoPO
NORAD 34088·DEBRIS·🇺🇸 United States

Lanzado Sep 14, 1997 desde Baikonur Cosmodrome

Loading…

Próximos Pases (próximas 24 horas)

TLE

ActualizadoSource: Space-Track

Época: Sep 14, 2026, 11:18 UTC

1 34088U 97051CX  26257.47116571  .00027326  00000-0  17169-2 0  9995
2 34088  86.3597 261.9597 0001658 177.5160 340.8061 15.09131760928777

Sigue IRIDIUM 33 DEB en tiempo real con AllMySat

Download on the App Store